Regional Weather Roundup
Issued by NWS

Home | Current Version | Previous Version | Text Only | Print | Product List | Glossary Off
Versions: 1 2 3 4 5 6 7 8 9 10 11 12 13 14 15 16 17 18 19 20 21 22 23 24 25 26 27 28 29 30 31 32 33 34 35 36 37 38 39 40 41 42 43 44 45 46 47 48 49 50

000
ASUS43 KOAX 050902
RWRNE

WEATHER ROUNDUP FOR NEBRASKA
NATIONAL WEATHER SERVICE OMAHA NE
300 AM CST THU MAR 05 2015

NOTES: SATELLITE DATA IS BEING USED TO AUGMENT CLOUD COVER ABOVE
       12000 FEET.
       "FAIR" INDICATES FEW OR NO CLOUDS BELOW 12,000 FEET WITH NO
       SIGNIFICANT WEATHER AND/OR OBSTRUCTIONS TO VISIBILITY.

  * THESE STATIONS DO NOT REPORT WEATHER SUCH AS RAIN...SNOW OR FOG.

NEZ001>004-019>022-054>056-051000-
NEBRASKA PANHANDLE

CITY           SKY/WX    TMP DP  RH WIND       PRES   REMARKS
SCOTTSBLUFF    CLEAR      7   1  76 N3        30.22F
ALLIANCE       PTCLDY     0  -6  76 CALM      30.21F
CHADRON        MOCLDY    -6 -11  79 SW3       30.24F
KIMBALL        CLEAR     10   6  82 W7        30.17F WCI  -1
SIDNEY         CLEAR      9   4  80 W10       30.22F WCI  -5
$$

NEZ057>060-069>072-079>082-051000-
SOUTHWEST NEBRASKA

CITY           SKY/WX    TMP DP  RH WIND       PRES   REMARKS
NORTH PLATTE   CLEAR      4  -3  73 E3        30.33F
IMPERIAL         N/A      8   1  73 CALM      30.29F
LEXINGTON      CLEAR      4   0  81 CALM      30.37F
MCCOOK         CLEAR     12   2  64 E5        30.35S WCI   4
$$

NEZ005>010-023>029-035>040-094-051000-
NORTH CENTRAL NEBRASKA

CITY           SKY/WX    TMP DP  RH WIND       PRES   REMARKS
VALENTINE      CLEAR      0  -4  83 W6        30.32F WCI -12
AINSWORTH      CLEAR      3  -2  79 SW8       30.32F WCI -11
BROKEN BOW     CLEAR      1  -5  75 CALM      30.35F
ORD            CLEAR     -1  -8  72 SW3       30.40S
$$

NEZ041-046>049-061>064-073>077-083>087-051000-
SOUTH CENTRAL NEBRASKA

CITY           SKY/WX    TMP DP  RH WIND       PRES   REMARKS
GRAND ISLAND   CLEAR      5  -2  72 CALM      30.44F
HASTINGS       CLEAR      4  -4  69 CALM      30.42S
HEBRON         CLEAR      7   0  72 CALM      30.47S
KEARNEY *      CLEAR      5  -2  72 CALM      30.40F
$$

NEZ011>018-030>034-042>045-051000-
NORTHEAST NEBRASKA

CITY           SKY/WX    TMP DP  RH WIND       PRES   REMARKS
NORFOLK        CLEAR     -1  -7  75 SW5       30.43S WCI -11
BLAIR          CLEAR      5  -3  67 CALM      30.46S
COLUMBUS *     PTCLDY     0 -11  60 CALM      30.47S
FREMONT        CLEAR      4  -3  72 W3        30.48S
TEKAMAH        CLEAR      0  -6  76 W5        30.50S WCI -10
$$

NEZ050>053-065>068-078-088>093-051000-
SOUTHEAST NEBRASKA

CITY           SKY/WX    TMP DP  RH WIND       PRES   REMARKS
LINCOLN        CLEAR      3  -4  72 NW3       30.50S
OMAHA EPPLEY   CLEAR      6  -4  63 CALM      30.51R
FALLS CITY     FAIR       8  -2  63 NW3       30.50R
$$

NEZ044-045-051>053-067-051000-
OMAHA AREA

CITY           SKY/WX    TMP DP  RH WIND       PRES   REMARKS
OMAHA EPPLEY   CLEAR      6  -4  63 CALM      30.51R
BLAIR          CLEAR      5  -3  67 CALM      30.46S
FREMONT        CLEAR      4  -3  72 W3        30.48S
OFFUTT AFB     CLEAR      5  -3  70 N1        30.49S
$$


USA.gov is the U.S. government's official web portal to all federal, state and local government web resources and services.